EW5295 Weather Reports


time (UTC)temp
C
wind
direction
speed
KPH
gust
KPH
rain 1hr
cm
rain 24hr
cm
rain mn
cm
humidity
%
barometer
mb
20260905044535 12 287 0.0 0.0 0.00 0.46 0.33 95 1014.9
20260905043027 12 287 0.0 0.0 0.00 0.46 0.33 95 1015.0
20260905041523 11 287 0.0 0.0 0.00 0.46 0.33 94 1014.9
20260905040011 12 287 0.0 0.0 0.00 0.46 0.33 94 1014.7
20260905034508 12 287 0.0 0.0 0.00 0.46 0.33 94 1014.5
20260905033004 12 287 0.0 0.0 0.00 0.46 0.33 94 1014.4
20260905031502 12 288 0.0 0.0 0.00 0.46 0.33 94 1014.2
20260905024559 13 288 0.0 0.0 0.03 0.46 0.33 93 1014.0
20260905023057 13 288 0.0 0.0 0.03 0.46 0.33 92 1014.1
20260905021556 13 288 0.0 0.0 0.03 0.46 0.33 92 1014.0
20260905020050 13 288 0.0 0.0 0.08 0.46 0.33 91 1013.8
20260905014539 13 288 0.0 1.6 0.05 0.43 0.30 89 1013.7
20260905013037 14 288 0.0 1.6 0.05 0.43 0.30 89 1013.6
20260905011554 14 314 0.0 0.0 0.08 0.43 0.30 89 1013.5
20260905010040 15 161 0.0 0.0 0.08 0.38 0.25 89 1013.5
20260905004536 14 161 0.0 0.0 0.13 0.38 0.25 89 1013.3
20260905003044 14 161 0.0 1.6 0.18 0.38 0.25 91 1013.3
20260905001536 14 205 0.0 0.0 0.23 0.36 0.23 91 1013.6
20260905000019 14 218 0.0 0.0 0.18 0.30 0.18 90 1013.6
20260904234525 14 219 0.0 1.6 0.13 0.25 0.13 87 1013.5
20260904233034 15 141 0.0 1.6 0.08 0.20 0.08 85 1013.4
20260904231512 15 287 0.0 3.2 0.00 0.13 0.00 81 1013.3
20260904230023 16 273 0.0 4.8 0.00 0.13 0.00 73 1013.1
20260904224504 16 325 0.0 4.8 0.00 0.13 0.00 71 1012.9
20260904223001 17 315 0.0 1.6 0.00 0.13 0.00 69 1013.0
20260904221559 17 162 0.0 1.6 0.00 0.13 0.00 68 1012.8
20260904220050 17 126 0.0 1.6 0.00 0.13 0.00 66 1012.7
20260904214539 17 224 0.0 1.6 0.00 0.13 0.00 70 1012.7
20260904213021 17 153 0.0 1.6 0.00 0.13 0.00 68 1012.6
20260904211518 17 164 0.0 1.6 0.00 0.18 0.13 74 1012.5
20260904210005 17 177 0.0 1.6 0.00 0.18 0.13 76 1012.4
20260904204504 17 153 0.0 1.6 0.00 0.18 0.13 68 1012.4
20260904203003 17 187 0.0 1.6 0.00 0.18 0.13 70 1012.3
20260904201622 17 143 0.0 1.6 0.00 0.28 0.13 73 1012.3
20260904200101 17 186 0.0 0.0 0.00 0.28 0.13 71 1012.3
20260904194559 17 155 0.0 1.6 0.00 0.28 0.13 68 1012.4
20260904193102 17 300 0.0 3.2 0.00 0.28 0.13 70 1012.5
20260904191555 17 307 0.0 3.2 0.00 0.28 0.13 74 1012.6
20260904190041 16 140 0.0 1.6 0.00 0.28 0.13 77 1012.6
20260904184542 15 290 0.0 4.8 0.00 0.28 0.13 79 1012.6
20260904183034 15 300 0.0 3.2 0.00 0.28 0.13 84 1012.6
20260904181538 14 300 0.0 1.6 0.03 0.28 0.13 85 1012.5
20260904180035 14 326 0.0 3.2 0.03 0.28 0.13 89 1012.3
20260904174530 13 159 0.0 0.0 0.03 0.28 0.13 89 1012.2
20260904173028 13 178 0.0 0.0 0.03 0.28 0.13 89 1012.2
20260904171538 13 135 0.0 1.6 0.00 0.25 0.10 90 1012.2
20260904170009 13 135 0.0 0.0 0.00 0.25 0.10 91 1012.1
20260904164512 12 135 0.0 0.0 0.00 0.25 0.10 92 1012.0
20260904163056 12 135 0.0 1.6 0.00 0.25 0.10 93 1011.8
20260904161555 12 135 0.0 1.6 0.00 0.43 0.10 94 1011.8
20260904160054 12 219 0.0 1.6 0.00 0.43 0.10 95 1011.7
20260904154554 11 304 0.0 0.0 0.00 0.43 0.10 95 1011.7
20260904153103 11 311 0.0 3.2 0.00 0.43 0.10 95 1011.7
20260904151551 11 302 0.0 0.0 0.00 0.43 0.10 95 1011.4
20260904150054 11 302 0.0 1.6 0.00 0.43 0.10 96 1011.5
20260904144551 -17 0.0 0.0 0.00 0.43 0.10 1011.2
20260904143034 -17 0.0 0.0 0.00 0.43 0.10 1011.0
20260904141533 -17 0.0 0.0 0.00 0.43 0.10 1010.9
20260904140028 -17 0.0 0.0 0.00 0.43 0.10 1010.8
20260904134517 -17 0.0 0.0 0.00 0.43 0.10 1010.6
20260904133023 -17 0.0 0.0 0.00 0.43 0.10 1010.6
20260904131511 -17 0.0 0.0 0.00 0.43 0.10 1010.4
20260904130004 -17 0.0 0.0 0.00 0.43 0.10 1010.2
20260904124609 -17 0.0 0.0 0.00 0.43 0.10 1010.2
20260904123044 -17 0.0 0.0 0.03 0.43 0.10 1010.2
20260904121539 -17 0.0 0.0 0.05 0.43 0.10 1010.1
20260904120041 12 167 0.0 0.0 0.08 0.43 0.10 95 1010.0
20260904114541 11 168 0.0 1.6 0.10 0.43 0.10 95 1010.0
20260904113040 11 214 0.0 0.0 0.08 0.41 0.08 94 1009.9
20260904111532 11 215 0.0 1.6 0.05 0.38 0.05 94 1009.8
20260904110030 11 215 0.0 1.6 0.03 0.36 0.03 94 1009.7
20260904104533 11 217 0.0 0.0 0.00 0.33 0.00 93 1009.7
20260904103036 11 217 0.0 0.0 0.00 0.33 0.00 93 1009.7
20260904101511 11 217 0.0 0.0 0.00 0.33 0.00 93 1009.6
20260904100011 11 217 0.0 0.0 0.00 0.33 0.00 93 1009.5
20260904094610 10 217 0.0 0.0 0.00 0.33 0.00 93 1009.5
20260904093100 11 217 0.0 0.0 0.00 0.33 0.00 92 1009.4
20260904091555 11 217 0.0 0.0 0.00 0.33 0.00 91 1009.3
20260904090052 11 217 0.0 0.0 0.00 0.33 0.00 91 1009.4
20260904084552 11 217 0.0 0.0 0.00 0.33 0.00 92 1009.3
20260904083050 11 217 0.0 0.0 0.00 0.33 0.00 91 1009.3
20260904081610 11 309 0.0 0.0 0.00 0.33 0.00 91 1009.3
20260904080050 12 309 0.0 1.6 0.00 0.33 0.00 90 1009.4
20260904074559 12 299 0.0 1.6 0.00 0.33 0.00 90 1009.4
20260904073046 11 284 0.0 0.0 0.00 0.33 0.00 90 1009.3
20260904071539 11 284 0.0 0.0 0.00 0.33 0.00 90 1009.3
20260904070034 11 284 0.0 0.0 0.00 0.33 0.00 91 1009.3
20260904064535 11 284 0.0 0.0 0.00 0.33 0.00 91 1009.2
20260904063035 11 284 0.0 0.0 0.00 0.33 0.00 91 1009.3
20260904061532 11 284 0.0 0.0 0.00 0.33 0.00 91 1009.3
20260904060031 11 284 0.0 0.0 0.00 0.33 0.00 90 1009.1
20260904054513 11 284 0.0 1.6 0.00 0.33 0.00 90 1009.3
20260904053012 12 285 0.0 1.6 0.00 0.33 0.00 90 1009.3
20260904051555 12 285 0.0 1.6 0.00 0.33 0.00 90 1009.4
20260904050052 12 200 0.0 0.0 0.00 0.33 0.00 91 1009.5